User: anonymous   Login
Location: Unspecified
(0.0000°N, 0.0000°E)
Time: 06:29:43
(UTC+00:00)
Language:

ISS - Orbit

View from above orbital plane
View from above orbital plane
View from above satellite
View from above satellite

Ground track
Ground track

The orbit data is extracted from the following two-line orbital elements,

1 25544U 98067A   15091.89744645  .00017653  00000-0  25986-3 0  9998
2 25544 051.6459 105.1415 0006771 162.2648 270.5405 15.55499576936163
Epoch (UTC): 01 April 2015 21:32:19
Eccentricity: 0.0006771
inclination: 51.6459°
perigee height: 396 km
apogee height: 405 km
right ascension of ascending node: 105.1415°
argument of perigee: 162.2648°
revolutions per day: 15.55499576
mean anomaly at epoch: 270.5405°
orbit number at epoch: 93616

The dashed part of the orbit path shows where the satellite is in the earth's shadow,  

DLR